Time,TemperatureF,DewpointF,PressureIn,WindDirection,WindDirectionDegrees,WindSpeedMPH,WindSpeedGustMPH,Humidity,HourlyPrecipIn,Conditions,Clouds,dailyrainin,SoftwareType,DateUTC
2013-01-03 00:04:00,29.5,24.4,30.74,East,90,0.0,0.0,81,0.00,,,0.00,WUHU216HW,2013-01-03 08:04:00,
2013-01-03 00:29:00,29.3,24.2,30.73,NE,45,0.0,0.0,81,0.00,,,0.00,WUHU216HW,2013-01-03 08:29:00,
2013-01-03 00:34:00,29.3,24.2,30.73,NE,45,0.0,0.0,81,0.00,,,0.00,WUHU216HW,2013-01-03 08:34:00,
2013-01-03 00:59:00,28.6,23.8,30.73,NNE,23,0.0,0.0,82,0.00,,,0.00,WUHU216HW,2013-01-03 08:59:00,
2013-01-03 01:04:00,28.6,23.8,30.73,NNE,23,0.0,0.0,82,0.00,,,0.00,WUHU216HW,2013-01-03 09:04:00,
2013-01-03 01:29:00,28.1,23.6,30.73,NNE,23,0.0,0.0,83,0.00,,,0.00,WUHU216HW,2013-01-03 09:29:00,
2013-01-03 01:34:00,28.1,23.6,30.73,NNE,23,0.0,0.0,83,0.00,,,0.00,WUHU216HW,2013-01-03 09:34:00,
2013-01-03 01:59:00,27.4,22.9,30.73,West,270,0.0,0.0,83,0.00,,,0.00,WUHU216HW,2013-01-03 09:59:00,
2013-01-03 02:04:00,27.4,22.9,30.73,West,270,0.0,0.0,83,0.00,,,0.00,WUHU216HW,2013-01-03 10:04:00,
2013-01-03 02:29:00,27.0,22.8,30.73,North,0,0.0,0.0,84,0.00,,,0.00,WUHU216HW,2013-01-03 10:29:00,
2013-01-03 02:34:00,27.0,22.8,30.73,North,0,0.0,0.0,84,0.00,,,0.00,WUHU216HW,2013-01-03 10:34:00,
2013-01-03 02:59:00,26.6,22.4,30.72,NW,315,0.0,0.0,84,0.00,,,0.00,WUHU216HW,2013-01-03 10:59:00,
2013-01-03 03:04:00,26.6,22.4,30.72,NW,315,0.0,0.0,84,0.00,,,0.00,WUHU216HW,2013-01-03 11:04:00,
2013-01-03 03:29:00,26.1,21.9,30.72,NW,315,0.0,0.0,84,0.00,,,0.00,WUHU216HW,2013-01-03 11:29:00,
2013-01-03 03:34:00,26.1,21.9,30.72,NW,315,0.0,0.0,84,0.00,,,0.00,WUHU216HW,2013-01-03 11:34:00,
2013-01-03 03:59:00,26.3,22.3,30.71,NW,315,0.0,0.0,85,0.00,,,0.00,WUHU216HW,2013-01-03 11:59:00,
2013-01-03 04:04:00,26.3,22.3,30.71,NW,315,0.0,0.0,85,0.00,,,0.00,WUHU216HW,2013-01-03 12:04:00,
2013-01-03 04:29:00,25.7,21.9,30.71,WNW,293,0.0,0.0,85,0.00,,,0.00,WUHU216HW,2013-01-03 12:29:00,
2013-01-03 04:34:00,25.7,21.9,30.71,WNW,293,0.0,0.0,85,0.00,,,0.00,WUHU216HW,2013-01-03 12:34:00,
2013-01-03 04:59:00,25.6,22.0,30.69,NE,45,0.0,0.0,86,0.00,,,0.00,WUHU216HW,2013-01-03 12:59:00,
2013-01-03 05:04:00,25.6,22.0,30.69,NE,45,0.0,0.0,86,0.00,,,0.00,WUHU216HW,2013-01-03 13:04:00,
2013-01-03 05:29:00,25.2,21.3,30.70,WSW,248,0.0,0.0,85,0.00,,,0.00,WUHU216HW,2013-01-03 13:29:00,
2013-01-03 05:34:00,25.2,21.3,30.70,WSW,248,0.0,0.0,85,0.00,,,0.00,WUHU216HW,2013-01-03 13:34:00,
2013-01-03 05:59:00,25.0,21.4,30.69,NE,45,0.0,0.0,86,0.00,,,0.00,WUHU216HW,2013-01-03 13:59:00,
2013-01-03 06:04:00,25.0,21.4,30.69,NE,45,0.0,0.0,86,0.00,,,0.00,WUHU216HW,2013-01-03 14:04:00,
2013-01-03 06:09:00,25.0,21.4,30.69,NE,45,0.0,0.0,86,0.00,,,0.00,WUHU216HW,2013-01-03 14:09:00,
2013-01-03 06:29:00,24.8,21.2,30.68,NE,45,0.4,0.4,86,0.00,,,0.00,WUHU216HW,2013-01-03 14:29:00,
2013-01-03 06:34:00,24.8,21.2,30.68,NE,45,0.4,0.4,86,0.00,,,0.00,WUHU216HW,2013-01-03 14:34:00,
2013-01-03 06:59:00,24.8,21.5,30.68,ENE,68,0.0,0.0,87,0.00,,,0.00,WUHU216HW,2013-01-03 14:59:00,
2013-01-03 07:04:00,24.8,21.5,30.68,ENE,68,0.2,0.2,87,0.00,,,0.00,WUHU216HW,2013-01-03 15:04:00,
2013-01-03 07:09:00,24.8,21.5,30.68,ENE,68,0.2,0.2,87,0.00,,,0.00,WUHU216HW,2013-01-03 15:09:00,
2013-01-03 07:29:00,24.7,21.3,30.69,WNW,293,0.0,0.0,87,0.00,,,0.00,WUHU216HW,2013-01-03 15:29:00,
2013-01-03 07:34:00,24.7,21.3,30.69,WNW,293,0.0,0.0,87,0.00,,,0.00,WUHU216HW,2013-01-03 15:34:00,
2013-01-03 07:59:00,25.2,21.9,30.70,ENE,68,0.0,0.0,87,0.00,,,0.00,WUHU216HW,2013-01-03 15:59:00,
2013-01-03 08:04:00,25.2,21.9,30.70,ENE,68,0.0,0.0,87,0.00,,,0.00,WUHU216HW,2013-01-03 16:04:00,
2013-01-03 08:09:00,25.2,21.9,30.70,ENE,68,0.0,0.0,87,0.00,,,0.00,WUHU216HW,2013-01-03 16:09:00,
2013-01-03 08:29:00,26.3,23.0,30.70,ENE,68,0.0,0.0,87,0.00,,,0.00,WUHU216HW,2013-01-03 16:29:00,
2013-01-03 08:34:00,26.3,23.0,30.70,ENE,68,0.0,0.0,87,0.00,,,0.00,WUHU216HW,2013-01-03 16:34:00,
2013-01-03 08:59:00,29.9,26.2,30.71,WSW,248,0.7,0.7,86,0.00,,,0.00,WUHU216HW,2013-01-03 16:59:00,
2013-01-03 09:04:00,29.9,26.2,30.71,WSW,248,0.7,0.7,86,0.00,,,0.00,WUHU216HW,2013-01-03 17:04:00,
2013-01-03 09:29:00,31.9,27.9,30.71,ESE,113,0.4,0.4,85,0.00,,,0.00,WUHU216HW,2013-01-03 17:29:00,
2013-01-03 09:34:00,31.9,27.9,30.71,ESE,113,0.4,0.4,85,0.00,,,0.00,WUHU216HW,2013-01-03 17:34:00,
2013-01-03 09:59:00,33.7,29.0,30.72,ENE,68,1.3,1.3,83,0.00,,,0.00,WUHU216HW,2013-01-03 17:59:00,
2013-01-03 10:04:00,33.7,29.0,30.72,ENE,68,1.3,1.3,83,0.00,,,0.00,WUHU216HW,2013-01-03 18:04:00,
2013-01-03 10:29:00,35.3,29.7,30.73,South,180,0.0,0.0,80,0.00,,,0.00,WUHU216HW,2013-01-03 18:29:00,
2013-01-03 10:34:00,35.3,29.7,30.73,South,180,0.0,0.0,80,0.00,,,0.00,WUHU216HW,2013-01-03 18:34:00,
2013-01-03 10:59:00,36.2,30.6,30.72,East,90,0.0,0.0,80,0.00,,,0.00,WUHU216HW,2013-01-03 18:59:00,
2013-01-03 11:04:00,36.2,30.6,30.72,East,90,0.0,0.0,80,0.00,,,0.00,WUHU216HW,2013-01-03 19:04:00,
2013-01-03 11:59:00,37.6,31.1,30.72,ENE,68,0.4,0.4,77,0.00,,,0.00,WUHU216HW,2013-01-03 19:59:00,
2013-01-03 12:04:00,37.6,30.8,30.70,East,90,1.6,2.5,76,0.00,,,0.00,WUHU216HW,2013-01-03 20:04:00,
2013-01-03 12:09:00,37.8,30.9,30.69,ESE,113,2.0,3.4,76,0.00,,,0.00,WUHU216HW,2013-01-03 20:09:00,
2013-01-03 12:14:00,38.0,30.8,30.71,SE,135,1.8,3.8,75,0.00,,,0.00,WUHU216HW,2013-01-03 20:14:00,
2013-01-03 12:19:00,38.0,30.8,30.71,SE,135,1.3,3.8,75,0.00,,,0.00,WUHU216HW,2013-01-03 20:19:00,
2013-01-03 12:24:00,38.0,30.8,30.71,SE,135,1.3,2.2,75,0.00,,,0.00,WUHU216HW,2013-01-03 20:24:00,
2013-01-03 12:46:00,38.5,31.2,30.71,North,0,0.4,0.4,75,0.00,,,0.00,WUHU216HW,2013-01-03 20:46:00,
2013-01-03 12:51:00,38.5,31.2,30.71,North,0,0.4,0.4,75,0.00,,,0.00,WUHU216HW,2013-01-03 20:51:00,
2013-01-03 13:00:00,39.2,31.2,30.71,SE,135,1.1,1.1,73,0.00,,,0.00,WUHU216HW,2013-01-03 21:00:00,
2013-01-03 13:05:00,39.2,31.2,30.71,SE,135,1.1,1.1,73,0.00,,,0.00,WUHU216HW,2013-01-03 21:05:00,
2013-01-03 13:30:00,39.2,31.0,30.70,East,90,2.5,2.5,72,0.00,,,0.00,WUHU216HW,2013-01-03 21:30:00,
2013-01-03 13:35:00,39.2,31.0,30.70,East,90,2.5,2.5,72,0.00,,,0.00,WUHU216HW,2013-01-03 21:35:00,
2013-01-03 14:00:00,38.9,30.6,30.70,ENE,68,0.2,0.2,72,0.00,,,0.00,WUHU216HW,2013-01-03 22:00:00,
2013-01-03 14:05:00,38.9,30.6,30.70,ENE,68,0.2,0.2,72,0.00,,,0.00,WUHU216HW,2013-01-03 22:05:00,
2013-01-03 14:30:00,39.2,30.6,30.70,SE,135,0.0,0.0,71,0.00,,,0.00,WUHU216HW,2013-01-03 22:30:00,
2013-01-03 14:35:00,39.2,30.6,30.70,SE,135,0.0,0.0,71,0.00,,,0.00,WUHU216HW,2013-01-03 22:35:00,
2013-01-03 15:00:00,40.0,31.3,30.69,SSE,158,0.0,0.0,71,0.00,,,0.00,WUHU216HW,2013-01-03 23:00:00,
2013-01-03 15:05:00,40.0,31.3,30.69,SSE,158,0.0,0.0,71,0.00,,,0.00,WUHU216HW,2013-01-03 23:05:00,
2013-01-03 15:30:00,40.0,31.3,30.70,SE,135,0.0,0.0,71,0.00,,,0.00,WUHU216HW,2013-01-03 23:30:00,
2013-01-03 15:35:00,40.0,31.3,30.70,SE,135,0.0,0.0,71,0.00,,,0.00,WUHU216HW,2013-01-03 23:35:00,
2013-01-03 16:00:00,39.2,30.6,30.71,ESE,113,0.0,0.0,71,0.00,,,0.00,WUHU216HW,2013-01-04 00:00:00,
2013-01-03 16:05:00,39.2,30.6,30.71,ESE,113,0.0,0.0,71,0.00,,,0.00,WUHU216HW,2013-01-04 00:05:00,
2013-01-03 16:30:00,39.1,30.8,30.71,South,180,1.1,1.1,72,0.00,,,0.00,WUHU216HW,2013-01-04 00:30:00,
2013-01-03 16:35:00,39.1,30.8,30.71,South,180,1.1,1.1,72,0.00,,,0.00,WUHU216HW,2013-01-04 00:35:00,
2013-01-03 17:00:00,37.8,30.2,30.71,WSW,248,0.4,0.4,74,0.00,,,0.00,WUHU216HW,2013-01-04 01:00:00,
2013-01-03 17:05:00,37.8,30.2,30.71,WSW,248,0.4,0.4,74,0.00,,,0.00,WUHU216HW,2013-01-04 01:05:00,
2013-01-03 17:30:00,36.7,29.9,30.72,WSW,248,0.0,0.0,76,0.00,,,0.00,WUHU216HW,2013-01-04 01:30:00,
2013-01-03 17:35:00,36.7,29.9,30.72,WSW,248,0.0,0.0,76,0.00,,,0.00,WUHU216HW,2013-01-04 01:35:00,
2013-01-03 18:00:00,36.4,29.5,30.72,South,180,0.0,0.0,76,0.00,,,0.00,WUHU216HW,2013-01-04 02:00:00,
2013-01-03 18:05:00,36.4,29.5,30.72,South,180,0.0,0.0,76,0.00,,,0.00,WUHU216HW,2013-01-04 02:05:00,
2013-01-03 18:30:00,36.0,29.4,30.73,WSW,248,0.2,0.2,77,0.00,,,0.00,WUHU216HW,2013-01-04 02:30:00,
2013-01-03 19:00:00,36.4,30.2,30.74,South,180,0.0,0.0,78,0.00,,,0.00,WUHU216HW,2013-01-04 03:00:00,
2013-01-03 19:05:00,36.4,30.2,30.74,South,180,0.0,0.0,78,0.00,,,0.00,WUHU216HW,2013-01-04 03:05:00,
2013-01-03 19:10:00,36.4,30.2,30.74,South,180,0.0,0.0,78,0.00,,,0.00,WUHU216HW,2013-01-04 03:10:00,
2013-01-03 19:30:00,36.4,30.2,30.74,SSW,203,0.0,0.0,78,0.00,,,0.00,WUHU216HW,2013-01-04 03:30:00,
2013-01-03 19:35:00,36.4,30.2,30.74,SSW,203,0.0,0.0,78,0.00,,,0.00,WUHU216HW,2013-01-04 03:35:00,
2013-01-03 20:00:00,36.0,29.8,30.74,SSW,203,0.0,0.0,78,0.00,,,0.00,WUHU216HW,2013-01-04 04:00:00,
2013-01-03 20:05:00,36.0,29.8,30.74,SSW,203,0.0,0.0,78,0.00,,,0.00,WUHU216HW,2013-01-04 04:05:00,
2013-01-03 20:30:00,35.8,29.6,30.75,South,180,0.0,0.0,78,0.00,,,0.00,WUHU216HW,2013-01-04 04:30:00,
2013-01-03 20:35:00,35.8,29.6,30.75,South,180,0.0,0.0,78,0.00,,,0.00,WUHU216HW,2013-01-04 04:35:00,
2013-01-03 21:00:00,35.6,29.7,30.76,SSE,158,0.4,0.4,79,0.00,,,0.00,WUHU216HW,2013-01-04 05:00:00,
2013-01-03 21:01:00,35.6,29.7,30.76,SSE,158,0.4,0.4,79,0.00,,,0.00,WUHU216HW,2013-01-04 05:01:00,
2013-01-03 21:03:00,35.6,29.7,30.76,SSE,158,0.4,0.4,79,0.00,,,0.00,WUHU216HW,2013-01-04 05:03:00,
2013-01-03 21:08:00,35.6,29.7,30.76,SSE,158,0.4,0.4,79,0.00,,,0.00,WUHU216HW,2013-01-04 05:08:00,
2013-01-03 21:30:00,35.8,30.2,30.77,South,180,0.4,0.4,80,0.00,,,0.00,WUHU216HW,2013-01-04 05:30:00,
2013-01-03 21:35:00,35.8,30.2,30.77,South,180,0.4,0.4,80,0.00,,,0.00,WUHU216HW,2013-01-04 05:35:00,
2013-01-03 22:00:00,36.0,30.4,30.78,South,180,0.0,0.0,80,0.00,,,0.00,WUHU216HW,2013-01-04 06:00:00,
2013-01-03 22:05:00,36.0,30.4,30.78,South,180,0.0,0.0,80,0.00,,,0.00,WUHU216HW,2013-01-04 06:05:00,
2013-01-03 22:30:00,36.2,30.9,30.79,WNW,293,0.0,0.0,81,0.00,,,0.00,WUHU216HW,2013-01-04 06:30:00,
2013-01-03 22:35:00,36.2,30.9,30.79,WNW,293,0.0,0.0,81,0.00,,,0.00,WUHU216HW,2013-01-04 06:35:00,
2013-01-03 23:00:00,36.7,31.4,30.80,WNW,293,0.0,0.0,81,0.00,,,0.00,WUHU216HW,2013-01-04 07:00:00,
2013-01-03 23:05:00,36.7,31.4,30.80,WNW,293,0.0,0.0,81,0.00,,,0.00,WUHU216HW,2013-01-04 07:05:00,
2013-01-03 23:30:00,36.9,31.6,30.80,WNW,293,0.0,0.0,81,0.00,,,0.00,WUHU216HW,2013-01-04 07:30:00,
2013-01-03 23:35:00,36.9,31.6,30.80,WNW,293,0.0,0.0,81,0.00,,,0.00,WUHU216HW,2013-01-04 07:35:00,